Printer-friendly version

IAU Minor Planet Center

Minor Planet Center

MPEC 2000-X11: 1999 YK5

The following Minor Planet Electronic Circular may be linked-to from your own Web pages, but must not otherwise be redistributed electronically.


Read MPEC 2000-X10 Read MPEC 2000-X12


M.P.E.C. 2000-X11                                Issued 2000 Dec. 2, 03:40 UT

     The Minor Planet Electronic Circulars contain information on unusual
         minor planets and routine data on comets.  They are published
   on behalf of Commission 20 of the International Astronomical Union by the
          Minor Planet Center, Smithsonian Astrophysical Observatory,
                          Cambridge, MA 02138, U.S.A.

             Prepared using the Tamkin Foundation Computer Network

                              MPC@CFA.HARVARD.EDU
          URL http://cfa-www.harvard.edu/iau/mpc.html  ISSN 1523-6714

                                   1999 YK5

                           Revision to MPEC 1999-Y33

Observations:
     J99Y05K  C2000 12 01.12898 12 05 38.83 +16 00 24.1          18.1 R      046
     J99Y05K  C2000 12 01.13166 12 05 39.31 +16 00 21.3                      046
     J99Y05K  C2000 12 01.13345 12 05 39.56 +16 00 18.8                      046
     J99Y05K  C2000 12 01.13785 12 05 40.41 +16 00 13.8                      046
     J99Y05K  C2000 12 01.13922 12 05 40.60 +16 00 12.1                      046
     J99Y05K  C2000 12 01.14282 12 05 41.20 +16 00 07.7          18.2 R      046
     J99Y05K  C2000 12 02.10932 12 08 30.08 +15 41 40.1          17.8 R      046
     J99Y05K  C2000 12 02.11098 12 08 30.43 +15 41 38.4                      046
     J99Y05K  C2000 12 02.11229 12 08 30.59 +15 41 36.8                      046
     J99Y05K  C2000 12 02.11362 12 08 30.90 +15 41 35.0                      046
     J99Y05K  C2000 12 02.11497 12 08 31.07 +15 41 33.3          18.1 R      046
     J99Y05K  C2000 12 02.11626 12 08 31.31 +15 41 31.9                      046

Observer details:
046 Klet.  Observers J. Ticha, M. Tichy, M. Kocer, P. Jelinek.  Measurer
    M. Tichy.  0.57-m f/5.2 reflector + CCD.

First and last observations above in comparison with prediction:
Residuals in seconds of arc, reference and Delta-T
001201 046  1.9-  8.4+    001202 046  1.8-  7.9+    MPO   694   -0.00014 day

Orbital elements:
1999 YK5
Epoch 2000 Sept. 13.0 TT = JDT 2451800.5                Marsden
M 127.42324              (2000.0)            P               Q
n   1.30479336     Peri.  292.69344     +0.22184118     +0.97372542
a   0.8294207      Node   349.71385     -0.75505566     +0.13816779
e   0.5583049      Incl.   16.74022     -0.61699063     +0.18102061
P   0.76           H   16.8           G   0.15           U   5
Residuals in seconds of arc
991228 704  0.3-  0.4+    991231 704  0.5-  0.5-    000113 151  0.4-  2.0-
991228 704  0.0   0.3-    991231 704  0.2+  0.1-    000115 151  0.5+  1.1+
991228 704  0.1+  0.8-    991231 348  0.1-  0.0     000115 151  0.2-  0.2-
991228 704  0.4-  2.2-    991231 348  0.1+  0.2+    000115 151  0.2+  0.3+
991228 704 (0.3+  3.0-)   000101 726  0.1-  0.1-    000115 151  0.8+  0.0
991229 704  0.1+  0.2+    000101 726  0.0   0.1+    000115 151  0.3+  0.7+
991229 704  0.1+  0.1-    000101 726  0.7+  0.1+    000118 360  0.0   0.1-
991229 704  1.1+  0.4-    000101 726  0.0   0.1-    000118 360  0.3-  0.1-
991229 704  0.4+  0.2-    000103 900  0.2-  0.2+    000118 360  0.2-  0.3-
991229 704  0.3+  0.0     000103 355  0.3+  0.2+    000121 610  1.1-  0.4+
991229 402  0.3+  0.2-    000103 900  0.1+  0.6+    000121 610  1.0-  0.4+
991229 402  0.3+  0.3+    000103 355  0.5+  0.4-    000121 610  1.0-  0.3+
991229 402  0.4+  0.1-    000103 355  0.2+  0.4-    000121 610  0.9-  0.2+
991229 402  0.1+  0.2+    000103 151  0.4+  0.1-    000121 610  0.8-  0.1+
991229 461  0.2-  0.1-    000103 151  0.6+  0.9+    000122 402  0.6+  0.5-
991229 461  0.1-  1.1-    000103 151  1.8-  1.6+    000122 402  0.1+  0.3-
991229 461  0.1-  1.1+    000103 151  0.2+  1.0+    000122 402  0.1-  0.3-
991229 461  0.4-  1.2-    000103 151  2.9-  2.3-    000123 610  0.5+  0.3-
991229 557  0.1-  0.3+    000103 151  0.5-  1.3+    000123 610  0.1+  0.2-
991229 557  0.0   0.2+    000103 151  0.2-  1.0+    000123 610  0.3-  0.0
991229 557  0.6-  1.0-    000104 360  0.2+  0.3+    000123 610  0.7-  0.3+
991229 595  0.3-  0.4+    000104 360  0.1-  0.4+    000123 610  1.1-  0.4+
991229 557  0.2-  0.0     000104 360  0.1-  0.3+    000124 046  0.5+  0.3-
991229 595  0.1+  0.5+    000105 726  0.2+  0.3+    000124 046  0.1+  0.2-
991229 595  0.1-  0.4+    000105 726  0.1+  0.1+    000124 046  0.1+  0.2-
991229 595  0.2+  0.3-    000105 726  0.3+  1.0+    000124 046  0.3+  0.1+
991229 595  0.1+  0.4+    000105 726  0.6+  0.8+    000124 046  0.4+  0.4+
991229 046  0.0   0.1+    000105 726  0.4-  0.9+    000126 704  0.8-  0.2-
991229 046  0.6-  0.2+    000105 726  1.1+  0.0     000126 704  0.1-  0.6-
991229 046  0.0   0.2+    000105 118  0.5-  0.2+    000126 704  1.2+  0.7+
991229 046  0.3+  0.6-    000105 118  0.5-  0.1+    000126 402  0.1+  0.4-
991229 046  0.3+  0.9+    000107 726  0.7+  0.6+    000126 402  0.2+  0.3-
991230 713  1.1+  2.0+    000107 726  0.3+  0.4-    000128 118  0.3-  0.1-
991230 713  1.1+  1.6+    000107 726  0.3+  0.2+    000128 118  0.2+  0.2-
991230 704  0.4-  0.4-    000107 726  0.2+  0.0     000202 360  0.4+  0.1+
991230 713  0.1-  0.0     000107 726  0.3+  0.0     000202 360  0.4+  0.0
991230 713  0.3+  2.3+    000107 726  0.1-  0.2+    000202 360  0.5+  0.2+
991230 713  0.7+  2.0+    000107 402  0.2+  0.1-    000210 402  0.2-  0.8-
991230 704  0.1+  0.4-    000107 402  0.1+  0.0     000210 402  0.5+  0.6-
991230 713  0.1-  0.1+    000107 402  0.1+  0.2-    000210 402  0.3+  0.9-
991230 704  0.1+  0.3-    000107 151  0.9-  0.9+    000211 360  0.2+  0.5-
991230 704  0.2-  0.5-    000107 151  0.0   0.3-    000211 360  0.1-  0.3-
991230 684  0.5-  0.6-    000107 151  0.0   0.1-    000211 360  0.3+  0.5-
991230 684  0.4-  0.6-    000107 151  0.4+  0.4+    000227 118  0.3+  0.7-
991230 900  0.4-  0.3-    000107 151  0.2-  0.8+    000227 118  0.1+  0.2-
991230 900  0.8-  0.5-    000107 151  0.7+  0.8-    000301 360  0.3+  0.0
991230 587  0.1+  0.0     000108 726  0.2+  0.1-    000301 360  0.5+  0.0
991230 587  0.3-  0.2-    000108 726  1.2+  0.4+    000301 360  0.6+  0.3+
991230 046  0.1-  0.0     000108 726  0.6-  0.1+    000425 540  0.2+  0.2+
991230 046  0.2-  0.0     000108 726  0.3+  0.4+    000425 540  0.1+  0.1+
991230 046  0.1-  0.1+    000108 726  0.4-  0.5+    000425 540  0.0   0.6-
991230 046  0.1-  0.1+    000108 726  0.2-  0.4+    000425 540  0.1+  0.6+
991230 046  0.3-  0.0     000109 726  0.6-  0.7+    001201 046  0.2+  0.5+
991231 104  0.1+  0.4+    000109 726  0.2+  0.3+    001201 046  0.5+  0.8+
991231 104  0.9+  0.2-    000109 726  0.2+  0.0     001201 046  0.3-  0.3+
991231 104  1.0+  0.6-    000109 726  0.5+  0.4+    001201 046  1.0+  0.3+
991231 557  0.2-  0.0     000110 610  0.4-  0.0     001201 046  0.3+  0.1+
991231 557  0.2-  0.0     000110 610  0.3-  0.1-    001201 046  0.0   0.2-
991231 557  0.1-  0.3+    000110 610  0.2-  0.5-    001202 046  0.1-  0.2+
991231 557  0.2-  0.0     000110 610  0.1-  0.6-    001202 046  0.8+  0.4+
991231 704  0.1-  0.3-    000110 610  0.0   0.7-    001202 046  0.2-  0.3+
991231 704  0.6-  1.8-    000113 151  0.5-  0.8-    001202 046  0.9+  0.1+
991231 651  0.3+  0.5-    000113 151  0.4-  0.5-    001202 046  0.0   0.1-
991231 704  0.4+  0.5-    000113 151  0.8-  1.0-    001202 046  0.2+  0.0
991231 651  0.5-  0.4-    000113 151  0.2+  1.3-

Ephemeris:
1999 YK5                 a,e,i = 0.83, 0.56, 17                  q = 0.3664
Date    TT    R. A. (2000) Decl.     Delta      r     Elong.  Phase     V
2000 12 02    12 08.17   +15 43.9    1.003    1.214    75.2    51.8    19.1
2000 12 07    12 23.13   +14 03.2    0.948    1.192    76.1    53.3    19.0
2000 12 12    12 38.92   +12 12.1    0.894    1.168    76.7    55.1    18.9
2000 12 17    12 55.77   +10 08.4    0.839    1.141    77.0    57.2    18.8
2000 12 22    13 13.98   +07 49.3    0.786    1.111    76.9    59.6    18.6
2000 12 27    13 33.89   +05 11.9    0.735    1.079    76.2    62.3    18.5
2001 01 01    13 55.93   +02 13.0    0.687    1.043    74.9    65.6    18.4
2001 01 06    14 20.63   -01 10.2    0.644    1.004    72.9    69.4    18.3
2001 01 11    14 48.58   -04 58.7    0.606    0.962    69.9    73.8    18.2
2001 01 16    15 20.38   -09 09.4    0.577    0.917    66.1    78.8    18.2
2001 01 21    15 56.42   -13 32.4    0.559    0.868    61.4    84.2    18.2
2001 01 26    16 36.72   -17 49.4    0.554    0.817    56.0    89.8    18.2
2001 01 31    17 20.55   -21 36.0    0.564    0.761    50.4    94.9    18.4
2001 02 05    18 06.40   -24 27.9    0.592    0.703    44.8    98.8    18.5
2001 02 10    18 52.30   -26 09.6    0.637    0.642    39.7   101.0    18.5
2001 02 15    19 36.47   -26 36.9    0.700    0.579    35.2   100.7    18.5
2001 02 20    20 17.90   -25 53.9    0.781    0.516    31.1    97.3    18.3

Brian G. Marsden             (C) Copyright 2000 MPC           M.P.E.C. 2000-X11

Read MPEC 2000-X10 Read MPEC 2000-X12


Our Web policy. Index to the CBAT/MPC/ICQ pages.


Valid HTML 4.01!